#timestamp,LO_Frequency,Hit,StdDev 
1550358015.3,286046998.4,N
1550358035.2,286046998.8,N
1550358055.0,286046996.6,Y
1550358055.9,286046996.6,P
1550358075.8,286046998.7,N
1550358095.6,286046999.4,N
1550358115.4,286046998.4,N
1550358135.3,286047001.1,N
1550358155.1,286046998.2,N
1550358175.9,286046998.7,N
1550358195.7,286046998.2,N
1550358215.5,286047000.6,N
1550358235.4,286047000.3,N
1550358255.2,286047000.1,N
1550358275.0,286047000.4,N
1550358275.9,286047000.4,N
1550358295.8,286046998.7,N
1550358315.6,286046996.6,N
1550358335.5,286046998.7,N
1550358355.3,286047000.5,N
1550358375.1,286047000.9,N
1550358395.9,286046999.9,N
1550358415.7,286047001.0,N
1550358435.5,286046998.3,N
1550358455.4,286046999.4,N
1550358475.2,286046998.4,N
1550358495.1,286046998.4,N
1550358496.0,286046998.4,N
1550358515.8,286047000.8,N
1550358535.6,286047000.4,N
1550358555.5,286047000.8,N
1550358575.3,286047000.2,N
1550358595.2,286047002.4,N
1550358615.9,286046999.7,N
1550358635.7,286047001.5,N
1550358655.6,286046999.7,N
1550358675.4,286047001.4,N
1550358695.2,286047001.7,N
1550358715.1,286047001.8,N
1550358716.0,286047001.8,N
1550358735.8,286047004.1,Y
1550358755.7,286047003.2,P
1550358775.5,286047003.9,N
1550358795.3,286047003.5,N
1550358815.2,286047005.5,Y
1550358835.0,286047000.1,P
1550358835.9,286047000.1,N
1550358855.7,286047000.1,N
1550358875.6,286046998.3,N
1550358895.4,286047000.5,N
1550358915.3,286047002.7,N
1550358935.1,286047000.6,N
1550358955.8,286047000.6,N
1550358975.7,286047001.2,N
1550358995.5,286046998.3,N
1550359015.3,286047000.0,N
1550359035.2,286046999.8,N
1550359055.0,286047001.6,N
1550359055.9,286047001.6,N
1550359075.8,286047004.2,Y
1550359095.6,286047003.9,P
1550359115.4,286047002.0,N
1550359135.3,286047001.7,N
1550359155.1,286046999.8,N
1550359175.9,286047000.3,N
1550359195.7,286047000.2,N
1550359215.5,286047000.1,N
1550359235.4,286046998.2,N
1550359255.2,286047000.3,N
1550359275.0,286047001.5,N
1550359275.9,286047001.5,N
1550359295.8,286047002.9,N
1550359315.6,286047003.9,N
1550359335.4,286047002.3,N
1550359355.3,286047002.0,N
1550359375.1,286047002.3,N
1550359395.9,286047002.2,N
1550359415.7,286047000.4,N
1550359435.5,286047000.2,N
1550359455.4,286047000.5,N
1550359475.2,286046999.1,N
1550359495.0,286046996.9,N
1550359495.9,286046996.9,N
1550359515.8,286046998.2,N
1550359535.6,286046998.4,N
1550359555.5,286046998.7,N
1550359575.3,286046998.1,N
1550359595.1,286047001.6,N
1550359615.9,286047001.9,N
1550359635.7,286047004.3,N
1550359655.5,286047000.2,N
1550359675.4,286046998.7,N
1550359695.2,286046998.9,N
1550359715.1,286046999.6,N
1550359716.0,286046999.6,N
1550359735.8,286046999.5,N
1550359755.6,286046999.1,N
1550359775.5,286046998.3,N
1550359795.3,286046997.0,N
1550359815.1,286046994.9,N
1550359835.9,286046999.6,N
1550359855.7,286046999.2,N
1550359875.6,286046997.6,N
1550359895.4,286046997.6,N
1550359915.2,286046996.3,N
1550359935.1,286046994.5,N
1550359936.0,286046994.5,N
1550359955.8,286046996.8,N
1550359975.6,286046998.8,N
1550359995.5,286047002.8,N
1550360015.3,286047002.6,N
1550360035.2,286046999.7,N
1550360055.9,286047002.6,N
1550360075.7,286047000.9,N
1550360095.6,286047000.0,N
1550360115.4,286047000.4,N
1550360135.2,286047000.1,N
1550360155.1,286047000.1,N
1550360156.0,286047000.1,N
1550360175.8,286047002.5,N
1550360195.7,286047000.1,N
1550360215.5,286047000.1,N
1550360235.3,286047001.2,N
1550360255.2,286046996.6,N
1550360275.9,286046999.2,N
1550360295.7,286046995.6,N
1550360315.6,286046995.0,N
1550360335.4,286046995.0,N
1550360355.2,286046995.7,N
1550360375.1,286046992.6,N
1550360376.0,286046992.6,N
1550360395.8,286046991.8,N
1550360415.7,286046992.9,N
1550360435.5,286046993.2,N
1550360455.3,286046990.6,N
1550360475.2,286046993.1,N
1550360495.0,286046994.2,N
1550360495.9,286046994.2,N
1550360515.8,286046991.7,N
1550360535.6,286046993.3,N
1550360555.4,286046993.3,N
1550360575.3,286046993.9,N
1550360595.1,286046991.9,N
1550360615.9,286046993.7,N
1550360635.7,286046995.3,N
1550360655.5,286046995.6,N
1550360675.4,286046993.8,N
1550360695.2,286046993.5,N
1550360715.1,286046992.1,N
1550360716.0,286046992.1,N
1550360735.8,286046994.3,N
1550360755.6,286046994.1,N
1550360775.5,286046994.2,N
1550360795.3,286046994.8,Y
1550360815.1,286047001.2,P
1550360835.9,286046999.6,N
1550360855.7,286046998.7,N
1550360875.6,286046999.2,N
1550360895.4,286046996.9,N
1550360915.2,286046998.8,N
1550360935.1,286046997.2,N
1550360936.0,286046997.2,N
1550360955.8,286046997.5,N
1550360975.6,286046996.5,N
1550360995.5,286046997.1,N
1550361015.3,286046999.0,N
1550361035.1,286046998.8,N
1550361055.9,286046998.7,N
1550361075.7,286046996.7,N
1550361095.6,286047000.8,N
1550361115.4,286047000.6,N
1550361135.2,286047002.2,N
1550361155.1,286047002.8,N
1550361156.0,286047002.8,N
1550361175.8,286047000.4,N
1550361195.6,286046998.5,N
1550361215.5,286046999.6,N
1550361235.3,286046996.8,N
1550361255.2,286046996.5,N
1550361275.9,286046998.3,N
1550361295.7,286047000.8,N
1550361315.6,286046999.8,N
1550361335.4,286047000.9,N
1550361355.2,286047002.0,N
1550361375.1,286047000.3,N
1550361376.0,286047000.3,N
1550361395.8,286047002.0,N
1550361415.7,286047001.4,N
1550361435.5,286046999.8,N
1550361455.3,286047000.6,N
1550361475.2,286046998.1,N
1550361495.0,286047000.8,N
1550361495.9,286047000.8,N
1550361515.7,286047003.9,N
1550361535.6,286047003.4,N
1550361555.4,286047005.5,N
1550361575.3,286047005.6,N
1550361595.1,286047004.9,N
1550361596.0,286047004.9,N
